Change the Weather History Date:

Monday, October 24, 2011

  Actual Average Record
Temperature  
Mean Temperature 53 °F -  
Max Temperature 62 °F 56 °F 77 °F (2012)
Min Temperature 36 °F 35 °F 28 °F (2003)
Degree Days  
Heating Degree Days 12    
Growing Degree Days 3 (Base 50)    
Moisture  
Dew Point 43 °F    
Average Humidity 74    
Maximum Humidity 96    
Minimum Humidity 38    
Precipitation  
Precipitation 0.37 in - - ()
Sea Level Pressure  
Sea Level Pressure 29.95 in    
Wind  
Wind Speed 10 mph (West)    
Max Wind Speed 20 mph    
Max Gust Speed 30 mph    
Visibility 9 miles    
Events Rain    
Averages and records for this station are not official NWS values.
T = Trace of Precipitation, MM = Missing Value Source: NWS Daily Summary

Daily Weather History Graph

Daily Weather History Graph

Search for Another Location

Airport or City:

Trip Planner

Search our weather history database for the weather conditions in past years. The results will help you decide how hot, cold, wet, or windy it might be!

Date:

Astronomy

Oct. 24, 2011 Rise Set
Actual Time 7:57 AM EDT 6:39 PM EDT
Civil Twilight 7:29 AM EDT 7:08 PM EDT
Nautical Twilight 6:56 AM EDT 7:41 PM EDT
Astronomical Twilight 6:24 AM EDT 8:13 PM EDT
Moon 5:13 AM EDT (10/24) 5:05 PM EDT (10/24)
Length of Visible Light 11h 39m
Length of Day
10h 41m
Waning Crescent, 7% of the Moon is Illuminated
Oct 24
Waning Crescent
Oct 26
New
Nov 2
First Quarter
Nov 10
Full
Nov 18
Last Quarter

Hourly Weather History & Observations

Time (EDT) Temp. Windchill Dew Point Humidity Pressure Visibility Wind Dir Wind Speed Gust Speed Precip Events Conditions
1:53 AM 48.9 °F - 44.1 °F 83% 29.88 in 10.0 mi South 9.2 mph - N/A   Scattered Clouds
2:53 AM 52.0 °F - 46.9 °F 83% 29.86 in 10.0 mi SSW 8.1 mph - 0.00 in   Mostly Cloudy
3:42 AM 51.8 °F - 48.2 °F 88% 29.89 in 5.0 mi WNW 10.4 mph 26.5 mph 0.15 in Rain Rain
3:53 AM 52.0 °F - 48.0 °F 86% 29.89 in 6.0 mi WNW 11.5 mph - 0.18 in Rain Light Rain
4:53 AM 50.0 °F - 48.0 °F 93% 29.90 in 4.0 mi West 13.8 mph - 0.09 in Rain Rain
5:53 AM 50.0 °F - 48.0 °F 93% 29.86 in 10.0 mi SSW 6.9 mph - 0.10 in   Overcast
6:53 AM 48.9 °F - 46.9 °F 93% 29.87 in 10.0 mi SW 4.6 mph - N/A   Mostly Cloudy
7:53 AM 48.0 °F - 46.9 °F 96% 29.89 in 10.0 mi West 5.8 mph - N/A   Mostly Cloudy
8:20 AM 48.2 °F - 46.4 °F 93% 29.90 in 10.0 mi WSW 5.8 mph - N/A   Overcast
8:53 AM 48.9 °F - 46.9 °F 93% 29.92 in 10.0 mi WSW 6.9 mph - N/A   Overcast
9:53 AM 52.0 °F - 48.9 °F 89% 29.94 in 10.0 mi West 12.7 mph 17.3 mph N/A   Mostly Cloudy
10:05 AM 53.6 °F - 48.2 °F 82% 29.94 in 10.0 mi WNW 12.7 mph - N/A   Scattered Clouds
10:14 AM 53.6 °F - 48.2 °F 82% 29.94 in 10.0 mi WNW 8.1 mph - N/A   Mostly Cloudy
10:27 AM 53.6 °F - 46.4 °F 77% 29.94 in 10.0 mi WNW 12.7 mph - N/A   Scattered Clouds
10:53 AM 54.0 °F - 46.0 °F 75% 29.96 in 10.0 mi NW 9.2 mph - N/A   Partly Cloudy
11:53 AM 55.9 °F - 42.1 °F 60% 29.98 in 10.0 mi WNW 10.4 mph 19.6 mph N/A   Clear
12:53 PM 57.9 °F - 39.0 °F 49% 29.99 in 10.0 mi WNW 11.5 mph 20.7 mph N/A   Clear
1:53 PM 59.0 °F - 37.0 °F 44% 29.98 in 10.0 mi West 18.4 mph 24.2 mph N/A   Clear
3:53 PM 60.1 °F - 35.1 °F 39% 29.98 in 10.0 mi WNW 18.4 mph 26.5 mph N/A   Clear
4:53 PM 60.1 °F - 34.0 °F 38% 29.99 in 10.0 mi WNW 19.6 mph 29.9 mph N/A   Clear
5:53 PM 57.9 °F - 33.1 °F 39% 30.02 in 10.0 mi WNW 11.5 mph - N/A   Clear
6:53 PM 55.9 °F - 33.1 °F 42% 30.04 in 10.0 mi WNW 11.5 mph 21.9 mph N/A   Clear
8:53 PM 46.0 °F 44.8 °F 35.1 °F 66% 30.09 in 10.0 mi WSW 3.5 mph - N/A   Clear
10:53 PM 36.0 °F 31.1 °F 34.0 °F 93% 30.12 in 10.0 mi SW 5.8 mph - N/A   Clear